Simultaneous Nadir Overpasses (SNOs) Predictions

Prediction of SNOs between NOAA-19 and TERRA Satellite Orbit:

Table of predicted SNOs for the next 14.0 days since TLE Epoch: 8/30/2014
Index Date (NOAA-19) Time (NOAA-19) Lat,Lon (NOAA-19) SZA (NOAA-19 ) Date (TERRA) Time (TERRA) Lat,Lon (TERRA) SZA (TERRA ) Distance(km) Time Diff (sec)
1 08/30/2014 20:51:41 -70.88, 48.96 118.01 08/30/2014 20:51:57 -70.86, 49.01 118.03 2.79 16
2 08/30/2014 21:42:38 70.64,-143.40 61.78 08/30/2014 21:41:26 70.65,-143.66 61.78 9.40 72
3 09/02/2014 01:35:28 -70.90, -22.00 117.20 09/02/2014 01:36:14 -70.90, -22.00 117.19 0.29 46
4 09/02/2014 02:26:28 70.79, 145.43 62.72 09/02/2014 02:25:41 70.80, 145.49 62.72 2.76 47
5 09/04/2014 06:19:17 -71.08, -93.23 116.21 09/04/2014 06:20:28 -71.04, -92.86 116.25 14.38 71
6 09/04/2014 07:10:15 70.84, 74.41 63.58 09/04/2014 07:09:57 70.83, 74.46 63.56 2.68 18
7 09/06/2014 11:54:02 70.85, 3.48 64.41 09/06/2014 11:54:14 70.83, 3.40 64.38 3.60 12
8 09/06/2014 12:44:58 -70.63, 171.11 115.80 09/06/2014 12:43:45 -70.67, 170.78 115.77 12.77 73
9 09/08/2014 16:37:50 70.92, -67.56 65.30 09/08/2014 16:38:29 70.94, -67.51 65.32 2.46 39
10 09/08/2014 17:28:47 -70.78, 99.94 114.83 09/08/2014 17:28:00 -70.78, 99.88 114.84 2.38 47
11 09/10/2014 21:21:37 70.95,-138.52 66.16 09/10/2014 21:22:45 70.97,-138.53 66.19 2.82 68
12 09/10/2014 22:12:34 -70.83, 28.93 113.95 09/10/2014 22:12:16 -70.82, 28.86 113.97 3.17 18
13 09/13/2014 02:05:41 71.85, 148.92 67.89 09/13/2014 02:06:47 71.75, 151.68 67.84 96.40 66
14 09/13/2014 02:56:21 -70.89, -42.08 113.05 09/13/2014 02:56:31 -70.89, -42.09 113.05 0.12 10




NCC Satellite Simultaneous Nadir Overpasses (SNOs) Prediction Service
